Ogallala, NE

5:00 PM MDT on April 23, 2017 (GMT -0600)
Searle

Weather History for KOGA - February, 2013

Change the Weather History Date:

Friday, February 22, 2013

  Actual Average Record
Temperature  
Mean Temperature 16 °F -  
Max Temperature 31 °F 46 °F 73 °F (1982)
Min Temperature 0 °F 19 °F -8 °F (1993)
Degree Days  
Heating Degree Days 50    
Moisture  
Dew Point 11 °F    
Average Humidity 83    
Maximum Humidity 91    
Minimum Humidity 68    
Precipitation  
Precipitation 0.01 in - - ()
Sea Level Pressure  
Sea Level Pressure 29.91 in    
Wind  
Wind Speed 3 mph (West)    
Max Wind Speed 8 mph    
Max Gust Speed -    
Visibility 9 miles    
Events Snow    
Averages and records for this station are not official NWS values.
T = Trace of Precipitation, MM = Missing Value Source: NWS Daily Summary

Daily Weather History Graph

Daily Weather History Graph

Search for Another Location

Airport or City:

Trip Planner

Search our weather history database for the weather conditions in past years. The results will help you decide how hot, cold, wet, or windy it might be!

Date:

Astronomy

Feb. 22, 2013 Rise Set
Actual Time 6:31 AM MST 5:30 PM MST
Civil Twilight 6:03 AM MST 5:58 PM MST
Nautical Twilight 5:31 AM MST 6:30 PM MST
Astronomical Twilight 4:59 AM MST 7:01 PM MST
Moon 2:42 PM MST (2/22) 4:19 AM MST (2/22)
Length of Visible Light 11h 54m
Length of Day
10h 58m
Waxing Gibbous, 90% of the Moon is Illuminated
Feb 22
Waxing Gibbous
Feb 25
Full
Mar 4
Last Quarter
Mar 11
New
Mar 19
First Quarter

Hourly Weather History & Observations

Time (MST) Temp. Windchill Dew Point Humidity Pressure Visibility Wind Dir Wind Speed Gust Speed Precip Events Conditions
12:15 AM 14.5 °F - 11.8 °F 89% 29.90 in 10.0 mi Calm Calm - N/A   Overcast
12:35 AM 13.5 °F 5.8 °F 9.9 °F 86% 29.90 in 10.0 mi NNW 4.6 mph - N/A   Overcast
12:55 AM 12.6 °F 3.4 °F 9.5 °F 88% 29.89 in 10.0 mi NNW 5.8 mph - N/A   Overcast
1:15 AM 13.3 °F 5.6 °F 9.3 °F 84% 29.90 in 10.0 mi NW 4.6 mph - N/A   Overcast
1:35 AM 10.8 °F 2.7 °F 7.5 °F 87% 29.90 in 10.0 mi NNW 4.6 mph - N/A   Overcast
1:55 AM 12.0 °F 4.1 °F 8.6 °F 86% 29.90 in 7.0 mi NNW 4.6 mph - N/A   Overcast
2:15 AM 12.6 °F - 9.3 °F 87% 29.90 in 7.0 mi Calm Calm - N/A   Overcast
2:35 AM 11.5 °F - 8.2 °F 87% 29.90 in 10.0 mi Calm Calm - N/A   Overcast
2:55 AM 10.8 °F 0.0 °F 7.9 °F 88% 29.90 in 10.0 mi West 6.9 mph - N/A   Overcast
3:15 AM 10.8 °F - 7.7 °F 87% 29.90 in 10.0 mi Calm Calm - N/A Snow Light Snow
3:35 AM 10.4 °F 4.0 °F 7.0 °F 86% 29.90 in 10.0 mi SW 3.5 mph - N/A   Overcast
3:55 AM 8.4 °F 1.8 °F 5.0 °F 86% 29.89 in 10.0 mi WSW 3.5 mph - N/A   Overcast
4:15 AM 7.3 °F -2.8 °F 3.9 °F 86% 29.89 in 2.5 mi West 5.8 mph - N/A   Mostly Cloudy
4:35 AM 3.4 °F -4.0 °F 0.1 °F 86% 29.89 in 10.0 mi North 3.5 mph - N/A   Clear
4:55 AM 4.3 °F -2.9 °F 1.6 °F 89% 29.89 in 7.0 mi West 3.5 mph - N/A   Clear
5:15 AM 4.6 °F - 1.4 °F 86% 29.90 in 10.0 mi Calm Calm - N/A   Clear
5:35 AM 1.2 °F -6.4 °F -2.7 °F 83% 29.90 in 10.0 mi WSW 3.5 mph - N/A   Clear
5:55 AM 0.3 °F -12.6 °F -2.9 °F 86% 29.90 in 10.0 mi West 6.9 mph - N/A   Clear
6:15 AM -0.9 °F -11.0 °F -4.9 °F 83% 29.91 in 10.0 mi West 4.6 mph - N/A   Clear
6:35 AM -0.9 °F -11.0 °F -4.4 °F 85% 29.92 in 10.0 mi West 4.6 mph - N/A   Scattered Clouds
6:55 AM 2.3 °F -7.2 °F -0.9 °F 86% 29.93 in 10.0 mi WSW 4.6 mph - N/A   Mostly Cloudy
7:15 AM 6.1 °F -4.3 °F 3.0 °F 87% 29.93 in 10.0 mi West 5.8 mph - N/A   Overcast
7:35 AM 8.2 °F -0.3 °F 5.2 °F 87% 29.94 in 10.0 mi WSW 4.6 mph - N/A   Overcast
7:55 AM 9.7 °F -1.3 °F 6.6 °F 87% 29.95 in 10.0 mi West 6.9 mph - N/A   Overcast
8:15 AM 11.8 °F 1.3 °F 9.0 °F 88% 29.95 in 10.0 mi West 6.9 mph - N/A Snow Light Snow
8:35 AM 12.7 °F 5.0 °F 9.3 °F 86% 29.95 in 7.0 mi WSW 4.6 mph - N/A Snow Light Snow
8:55 AM 14.0 °F 6.5 °F 10.9 °F 88% 29.95 in 4.0 mi WSW 4.6 mph - N/A Snow Light Snow
9:15 AM 15.6 °F - 11.5 °F 84% 29.95 in 7.0 mi Calm Calm - N/A Snow Light Snow
9:35 AM 16.7 °F 9.6 °F 11.5 °F 80% 29.95 in 7.0 mi SW 4.6 mph - N/A Snow Light Snow
9:55 AM 17.6 °F 10.7 °F 12.2 °F 79% 29.96 in 7.0 mi SW 4.6 mph - N/A   Overcast
10:15 AM 18.5 °F 13.3 °F 13.3 °F 80% 29.96 in 10.0 mi WSW 3.5 mph - N/A Snow Light Snow
10:35 AM 20.1 °F 13.6 °F 14.7 °F 80% 29.96 in 10.0 mi WSW 4.6 mph - 0.01 in   Overcast
10:55 AM 21.6 °F - 15.4 °F 77% 29.96 in 10.0 mi Calm Calm - 0.01 in   Overcast
11:15 AM 22.3 °F - 16.2 °F 77% 29.96 in 10.0 mi Calm Calm - N/A   Overcast
11:35 AM 23.4 °F - 17.1 °F 77% 29.95 in 10.0 mi Calm Calm - N/A   Overcast
11:55 AM 24.6 °F 20.3 °F 18.1 °F 76% 29.95 in 10.0 mi WSW 3.5 mph - N/A   Overcast
12:15 PM 25.5 °F 21.3 °F 18.9 °F 76% 29.95 in 10.0 mi West 3.5 mph - N/A   Overcast
12:35 PM 27.1 °F 23.2 °F 19.9 °F 74% 29.95 in 10.0 mi West 3.5 mph - N/A   Overcast
12:55 PM 27.5 °F 23.6 °F 20.3 °F 74% 29.93 in 10.0 mi West 3.5 mph - N/A   Overcast
1:15 PM 28.4 °F - 21.0 °F 74% 29.92 in 10.0 mi Calm Calm - N/A   Overcast
1:35 PM 30.0 °F 25.2 °F 22.1 °F 72% 29.92 in 10.0 mi WNW 4.6 mph - N/A   Overcast
1:55 PM 30.6 °F 23.8 °F 22.1 °F 71% 29.92 in 10.0 mi NNW 6.9 mph - N/A   Overcast
2:15 PM 29.8 °F 23.9 °F 22.1 °F 73% 29.91 in 10.0 mi NNW 5.8 mph - N/A   Mostly Cloudy
2:35 PM 30.0 °F 25.2 °F 21.9 °F 72% 29.92 in 10.0 mi NNW 4.6 mph - N/A   Mostly Cloudy
2:55 PM 30.2 °F - 22.5 °F 73% 29.91 in 10.0 mi Calm Calm - N/A   Overcast
3:15 PM 30.9 °F 25.2 °F 22.8 °F 72% 29.91 in 10.0 mi West 5.8 mph - N/A   Overcast
3:35 PM 31.3 °F 27.9 °F 23.4 °F 72% 29.91 in 10.0 mi West 3.5 mph - N/A   Mostly Cloudy
3:55 PM 30.9 °F 26.2 °F 21.9 °F 69% 29.91 in 10.0 mi WNW 4.6 mph - N/A   Scattered Clouds
4:15 PM 31.3 °F 25.6 °F 21.7 °F 68% 29.91 in 10.0 mi West 5.8 mph - N/A   Clear
4:35 PM 28.8 °F 23.7 °F 21.6 °F 74% 29.91 in 10.0 mi West 4.6 mph - N/A   Clear
4:55 PM 27.0 °F 20.5 °F 20.3 °F 76% 29.90 in 10.0 mi West 5.8 mph - N/A   Clear
5:15 PM 26.2 °F 20.7 °F 20.1 °F 78% 29.91 in 10.0 mi West 4.6 mph - N/A   Clear
5:35 PM 21.6 °F 16.8 °F 16.9 °F 82% 29.91 in 10.0 mi WSW 3.5 mph - N/A   Clear
5:55 PM 21.4 °F - 16.9 °F 83% 29.91 in 10.0 mi Calm Calm - N/A   Clear
6:15 PM 18.9 °F - 16.0 °F 89% 29.91 in 10.0 mi Calm Calm - N/A   Clear
6:35 PM 14.9 °F 6.1 °F 11.7 °F 87% 29.91 in 10.0 mi West 5.8 mph - N/A   Clear
6:55 PM 15.4 °F 9.8 °F 12.4 °F 88% 29.91 in 10.0 mi WSW 3.5 mph - N/A   Clear
7:15 PM 15.1 °F - 12.4 °F 89% 29.90 in 10.0 mi Calm Calm - N/A   Clear
7:35 PM 12.6 °F - 9.1 °F 86% 29.90 in 10.0 mi Calm Calm - N/A   Clear
7:55 PM 9.1 °F -3.0 °F 6.6 °F 89% 29.91 in 7.0 mi West 8.1 mph - N/A   Clear
8:15 PM 9.5 °F -0.3 °F 7.3 °F 91% 29.91 in 7.0 mi WSW 5.8 mph - N/A   Clear
8:35 PM 9.7 °F 3.2 °F 7.3 °F 90% 29.91 in 7.0 mi WSW 3.5 mph - N/A   Clear
8:55 PM 10.6 °F 4.3 °F 7.9 °F 89% 29.91 in 7.0 mi WSW 3.5 mph - N/A   Clear
9:15 PM 8.6 °F 2.0 °F 5.9 °F 89% 29.91 in 7.0 mi West 3.5 mph - N/A   Clear
9:35 PM 9.9 °F 3.4 °F 7.5 °F 90% 29.91 in 5.0 mi West 3.5 mph - N/A   Clear
9:55 PM 9.5 °F - 7.0 °F 90% 29.90 in 7.0 mi Calm Calm - N/A   Clear
10:15 PM 9.9 °F - 7.3 °F 90% 29.90 in 5.0 mi Calm Calm - N/A   Clear
10:35 PM 7.5 °F -1.1 °F 4.5 °F 87% 29.89 in 5.0 mi WSW 4.6 mph - N/A   Clear
10:55 PM 7.9 °F -2.2 °F 5.2 °F 89% 29.88 in 5.0 mi WSW 5.8 mph - N/A   Clear
11:15 PM 5.2 °F -5.4 °F 1.9 °F 86% 29.87 in 7.0 mi WSW 5.8 mph - N/A   Clear
11:35 PM 7.0 °F -4.5 °F 4.1 °F 88% 29.87 in 7.0 mi WSW 6.9 mph - N/A   Clear
11:55 PM 5.9 °F -5.8 °F 2.5 °F 86% 29.86 in 7.0 mi WSW 6.9 mph - N/A   Clear